Weather History for KGBG - December, 2011

Change the Weather History Date:

Monday, December 5, 2011

  Actual Average Record
Temperature  
Mean Temperature 32 °F -  
Max Temperature 34 °F 39 °F 66 °F (2001)
Min Temperature 31 °F 23 °F -5 °F (1977)
Degree Days  
Heating Degree Days 32    
Moisture  
Dew Point 26 °F    
Average Humidity 75    
Maximum Humidity 85    
Minimum Humidity 70    
Precipitation  
Precipitation 0.00 in - - ()
Sea Level Pressure  
Sea Level Pressure 30.30 in    
Wind  
Wind Speed 10 mph (NW)    
Max Wind Speed 16 mph    
Max Gust Speed 20 mph    
Visibility 10 miles    
Events Snow    
Averages and records for this station are not official NWS values.
T = Trace of Precipitation, MM = Missing Value Source: NWS Daily Summary

Daily Weather History Graph

Daily Weather History Graph

Search for Another Location

Airport or City:

Trip Planner

Search our weather history database for the weather conditions in past years. The results will help you decide how hot, cold, wet, or windy it might be!

Date:

Astronomy

Dec. 05, 2011 Rise Set
Actual Time 7:10 AM CST 4:33 PM CST
Civil Twilight 6:40 AM CST 5:04 PM CST
Nautical Twilight 6:05 AM CST 5:38 PM CST
Astronomical Twilight 5:32 AM CST 6:11 PM CST
Moon 1:32 PM CST (12/5) 2:31 AM CST (12/5)
Length of Visible Light 10h 24m
Length of Day
9h 22m
Waxing Gibbous, 80% of the Moon is Illuminated
Dec 5
Waxing Gibbous
Dec 10
Full
Dec 17
Last Quarter
Dec 24
New
Jan 1
First Quarter

Hourly Weather History & Observations

Time (CST) Temp. Windchill Dew Point Humidity Pressure Visibility Wind Dir Wind Speed Gust Speed Precip Events Conditions
12:15 AM 32.5 °F 26.2 °F 24.1 °F 71% 30.28 in 10.0 mi WNW 6.9 mph - N/A   Overcast
12:35 AM 32.5 °F 25.5 °F 23.9 °F 70% 30.27 in 10.0 mi WNW 8.1 mph - N/A   Overcast
12:55 AM 32.5 °F 24.8 °F 24.4 °F 72% 30.27 in 10.0 mi WNW 9.2 mph - N/A   Overcast
1:15 AM 32.0 °F 23.6 °F 24.8 °F 75% 30.25 in 10.0 mi NW 10.4 mph - N/A   Overcast
1:35 AM 32.2 °F 25.0 °F 24.6 °F 74% 30.26 in 10.0 mi WNW 8.1 mph - N/A   Overcast
1:55 AM 32.4 °F 25.3 °F 24.8 °F 74% 30.29 in 10.0 mi West 8.1 mph - N/A   Overcast
2:15 AM 32.2 °F 23.8 °F 24.4 °F 73% 30.28 in 10.0 mi NW 10.4 mph - N/A   Overcast
2:35 AM 32.0 °F 23.6 °F 24.3 °F 73% 30.28 in 10.0 mi WNW 10.4 mph - N/A   Overcast
2:55 AM 32.0 °F 24.2 °F 24.8 °F 75% 30.27 in 10.0 mi WNW 9.2 mph - N/A   Overcast
3:15 AM 32.0 °F 23.6 °F 23.7 °F 71% 30.28 in 10.0 mi NW 10.4 mph - N/A   Overcast
3:35 AM 32.0 °F 24.2 °F 23.7 °F 71% 30.30 in 10.0 mi WNW 9.2 mph - N/A   Overcast
3:55 AM 32.0 °F 23.0 °F 23.9 °F 72% 30.29 in 10.0 mi WNW 11.5 mph 16.1 mph N/A   Overcast
4:15 AM 32.0 °F 23.6 °F 23.9 °F 72% 30.30 in 10.0 mi NW 10.4 mph - N/A   Overcast
4:35 AM 32.0 °F 24.8 °F 23.9 °F 72% 30.30 in 10.0 mi NW 8.1 mph - N/A   Overcast
4:55 AM 32.0 °F 23.0 °F 24.8 °F 75% 30.31 in 10.0 mi NW 11.5 mph 17.3 mph N/A   Overcast
5:15 AM 31.8 °F 22.3 °F 23.9 °F 73% 30.32 in 10.0 mi NNW 12.7 mph - N/A   Overcast
5:35 AM 31.8 °F 22.8 °F 23.5 °F 71% 30.31 in 10.0 mi NW 11.5 mph 16.1 mph N/A   Overcast
5:55 AM 31.6 °F 20.7 °F 23.0 °F 70% 30.28 in 10.0 mi NNW 16.1 mph - N/A   Overcast
6:15 AM 31.5 °F 23.5 °F 23.5 °F 73% 30.28 in 10.0 mi NNW 9.2 mph - N/A   Overcast
6:35 AM 31.6 °F 24.4 °F 24.3 °F 74% 30.29 in 10.0 mi North 8.1 mph - N/A   Overcast
6:55 AM 31.5 °F 21.8 °F 23.0 °F 71% 30.30 in 10.0 mi North 12.7 mph - N/A   Overcast
7:15 AM 31.6 °F 22.6 °F 23.0 °F 70% 30.30 in 10.0 mi NW 11.5 mph - N/A   Overcast
7:35 AM 31.8 °F 22.8 °F 23.2 °F 70% 30.31 in 10.0 mi NNW 11.5 mph - N/A   Overcast
7:55 AM 32.0 °F 23.6 °F 23.7 °F 71% 30.33 in 10.0 mi NNW 10.4 mph - N/A   Overcast
8:15 AM 31.8 °F 23.9 °F 23.9 °F 73% 30.32 in 10.0 mi WNW 9.2 mph - N/A   Overcast
8:35 AM 31.1 °F 23.1 °F 24.4 °F 76% 30.32 in 10.0 mi NW 9.2 mph - N/A   Overcast
8:55 AM 32.0 °F 23.6 °F 24.8 °F 75% 30.33 in 10.0 mi NW 10.4 mph - N/A   Overcast
9:15 AM 31.5 °F 22.3 °F 24.3 °F 75% 30.33 in 10.0 mi WNW 11.5 mph - N/A   Overcast
9:35 AM 31.8 °F 23.9 °F 24.4 °F 74% 30.33 in 10.0 mi NW 9.2 mph - N/A   Overcast
9:55 AM 32.0 °F 23.6 °F 24.8 °F 75% 30.34 in 10.0 mi NW 10.4 mph - N/A   Overcast
10:15 AM 32.0 °F 24.2 °F 25.2 °F 76% 30.35 in 10.0 mi WNW 9.2 mph - N/A   Overcast
10:35 AM 32.2 °F 24.4 °F 25.5 °F 76% 30.33 in 10.0 mi NW 9.2 mph - N/A   Overcast
10:55 AM 32.5 °F 23.7 °F 25.5 °F 75% 30.32 in 10.0 mi NW 11.5 mph - N/A   Overcast
11:15 AM 32.9 °F 23.7 °F 25.7 °F 75% 30.33 in 10.0 mi NW 12.7 mph - N/A   Overcast
11:35 AM 33.1 °F 24.9 °F 26.2 °F 76% 30.33 in 10.0 mi NW 10.4 mph - N/A   Overcast
11:55 AM 33.1 °F 24.4 °F 25.9 °F 75% 30.33 in 10.0 mi NW 11.5 mph - N/A   Overcast
12:15 PM 33.3 °F 25.7 °F 26.2 °F 75% 30.32 in 10.0 mi NW 9.2 mph - N/A   Overcast
12:35 PM 33.1 °F 25.5 °F 25.7 °F 74% 30.31 in 10.0 mi NW 9.2 mph - N/A   Overcast
12:55 PM 33.3 °F 26.4 °F 26.2 °F 75% 30.30 in 10.0 mi NW 8.1 mph - N/A   Overcast
1:15 PM 33.1 °F 24.9 °F 26.2 °F 76% 30.29 in 10.0 mi NW 10.4 mph - N/A   Overcast
1:35 PM 33.1 °F 24.9 °F 26.2 °F 76% 30.29 in 10.0 mi NW 10.4 mph - N/A   Overcast
1:55 PM 33.3 °F 23.7 °F 26.2 °F 75% 30.28 in 10.0 mi WNW 13.8 mph - N/A   Overcast
2:15 PM 33.3 °F 24.1 °F 26.2 °F 75% 30.28 in 10.0 mi NW 12.7 mph - N/A   Overcast
2:35 PM 33.4 °F 23.9 °F 26.2 °F 75% 30.28 in 10.0 mi NW 13.8 mph - N/A   Overcast
2:55 PM 33.3 °F 23.2 °F 26.2 °F 75% 30.28 in 10.0 mi NW 15.0 mph - N/A   Overcast
3:15 PM 33.3 °F 23.7 °F 26.4 °F 76% 30.28 in 10.0 mi NW 13.8 mph - N/A   Overcast
3:35 PM 34.0 °F 24.2 °F 26.6 °F 74% 30.29 in 10.0 mi NW 15.0 mph 19.6 mph N/A   Overcast
3:55 PM 33.4 °F 23.9 °F 26.1 °F 74% 30.28 in 10.0 mi NW 13.8 mph - N/A   Overcast
4:15 PM 32.5 °F 23.2 °F 26.1 °F 77% 30.28 in 10.0 mi NW 12.7 mph 18.4 mph N/A   Mostly Cloudy
4:35 PM 32.9 °F 23.2 °F 26.4 °F 77% 30.30 in 10.0 mi NW 13.8 mph 17.3 mph N/A   Overcast
4:55 PM 32.9 °F 23.2 °F 26.4 °F 77% 30.29 in 10.0 mi NW 13.8 mph 18.4 mph N/A   Overcast
5:15 PM 32.0 °F 23.0 °F 26.6 °F 80% 30.30 in 10.0 mi NW 11.5 mph - N/A   Overcast
5:35 PM 33.8 °F 25.3 °F 26.6 °F 75% 30.31 in 10.0 mi NW 11.5 mph - N/A   Overcast
5:55 PM 32.9 °F 24.1 °F 26.2 °F 76% 30.31 in 10.0 mi NNW 11.5 mph - N/A   Overcast
6:15 PM 32.9 °F 22.4 °F 25.5 °F 74% 30.31 in 10.0 mi NNW 16.1 mph 19.6 mph N/A   Overcast
6:35 PM 32.7 °F 24.5 °F 25.3 °F 74% 30.31 in 10.0 mi NW 10.4 mph - N/A   Overcast
6:55 PM 32.7 °F 24.5 °F 25.7 °F 75% 30.31 in 10.0 mi NNW 10.4 mph - N/A   Overcast
7:15 PM 32.7 °F 24.5 °F 25.7 °F 75% 30.31 in 10.0 mi NW 10.4 mph - N/A   Overcast
7:35 PM 32.7 °F 25.0 °F 26.2 °F 77% 30.32 in 10.0 mi NW 9.2 mph - N/A   Overcast
7:55 PM 32.9 °F 24.7 °F 26.4 °F 77% 30.32 in 10.0 mi NW 10.4 mph - N/A   Overcast
8:15 PM 32.9 °F 25.9 °F 26.6 °F 78% 30.33 in 10.0 mi NW 8.1 mph - N/A   Overcast
8:35 PM 32.9 °F 25.9 °F 27.0 °F 79% 30.33 in 10.0 mi NW 8.1 mph - N/A   Overcast
8:55 PM 33.8 °F 27.0 °F 26.6 °F 75% 30.32 in 10.0 mi NW 8.1 mph - N/A   Overcast
9:15 PM 33.8 °F 26.4 °F 28.4 °F 81% 30.32 in 5.0 mi NW 9.2 mph - N/A Snow Light Snow
9:35 PM 32.9 °F 25.9 °F 28.0 °F 82% 30.32 in 7.0 mi NW 8.1 mph - N/A   Overcast
9:55 PM 32.9 °F 25.9 °F 28.2 °F 83% 30.31 in 7.0 mi NW 8.1 mph - N/A   Overcast
10:15 PM 32.9 °F 25.3 °F 28.4 °F 84% 30.31 in 7.0 mi NW 9.2 mph - N/A   Overcast
10:35 PM 33.1 °F 24.9 °F 28.4 °F 83% 30.31 in 7.0 mi NW 10.4 mph - N/A   Overcast
10:55 PM 33.1 °F 24.9 °F 28.8 °F 84% 30.31 in 7.0 mi NW 10.4 mph - N/A   Overcast
11:15 PM 32.9 °F 25.3 °F 28.8 °F 85% 30.31 in 7.0 mi NW 9.2 mph - N/A   Overcast
11:35 PM 33.1 °F 24.9 °F 28.9 °F 85% 30.31 in 7.0 mi NW 10.4 mph - N/A   Overcast
11:55 PM 33.1 °F 25.5 °F 28.9 °F 85% 30.31 in 7.0 mi NW 9.2 mph - N/A   Overcast